Regional Weather Roundup
Issued by NWS

Home | Current Version | Previous Version | Graphics & Text | Print | Product List | Glossary On
Versions: 1 2 3 4 5 6 7 8 9 10 11 12 13 14 15 16 17 18 19 20 21 22 23 24 25 26 27 28 29 30 31 32 33 34 35 36 37 38 39 40 41 42 43 44 45 46 47 48 49 50
000
ASUS43 KLSX 071607
RWRMO

WEATHER SUMMARY FOR MISSOURI
NATIONAL WEATHER SERVICE SPRINGFIELD MO
1100 AM CDT TUE JUL 07 2015

NOTE: "FAIR" INDICATES FEW OR NO CLOUDS BELOW 12,000 FEET WITH NO
       SIGNIFICANT WEATHER AND/OR OBSTRUCTIONS TO VISIBILITY.
       CURRENT SKY AND/OR WEATHER CONDITIONS ARE NOT AVAILABLE FOR
       CHILLICOTHE AND FARMINGTON.

MOZ001>031-035>038-043-044-053-054-071700-
...NORTHERN AND WESTERN MISSOURI...

CITY           SKY/WX    TMP DP  RH WIND       PRES   REMARKS
KANSAS CTY INT CLOUDY    66  59  78 N10       30.08R
KANSAS C DTWN  PTSUNNY   70  60  70 NE9       30.07R HAZE
LEE`S SUMMIT   CLOUDY    67  60  78 N13       30.07R HAZE
ST JOSEPH      MOSUNNY   67  58  72 MISG      30.09S
CHILLICOTHE      N/A     70  60  70 N8        30.07R
KIRKSVILLE     LGT RAIN  69  57  65 N14G21    30.05R

$$
MOZ066>068-077>081-088>096-101>105-071700-
...SOUTHWEST MISSOURI...

CITY           SKY/WX    TMP DP  RH WIND       PRES   REMARKS
SPRINGFIELD    CLOUDY    75  72  90 S7        29.98S
JOPLIN         CLOUDY    67  66  97 N10       30.01R FOG

$$
MOZ032>034-039>042-045>050-055>058-069>072-071700-
...CENTRAL MISSOURI...

CITY           SKY/WX    TMP DP  RH WIND       PRES   REMARKS
COLUMBIA       CLOUDY    66  63  90 N14       30.01R FOG
ROLLA          CLOUDY    70  68  93 NW10      29.98R
SEDALIA        CLOUDY    65  60  84 N13       30.05R HAZE
WHITEMAN AFB   PTSUNNY   65  60  83 N10       30.04R FOG
WARRENSBURG    CLOUDY    64  59  82 N6        30.05R HAZE
OSAGE BEACH    CLOUDY    66  64  94 N7        30.00R

$$
MOZ051-052-059>065-071700-
...EAST CENTRAL MISSOURI...

CITY           SKY/WX    TMP DP  RH WIND       PRES   REMARKS
ST LOUIS INTL  CLOUDY    71  67  87 NW10      29.97R FOG
SPIRIT OF STL  CLOUDY    71  69  93 N6        29.96R FOG
ST CHARLES     CLOUDY    69  67  93 N12       29.96R FOG

$$
MOZ072>076-082>087-097>100-106>115-071700-
...SOUTH CENTRAL AND SOUTHEAST MISSOURI...

CITY           SKY/WX    TMP DP  RH WIND       PRES   REMARKS
CAPE GIRARDEAU CLOUDY    78  75  90 SW6       29.97S
FARMINGTON     CLOUDY    73  72  94 SW8       30.01S
POPLAR BLUFF   CLOUDY    83  75  77 SW12      29.96F HX  90
WEST PLAINS    RAIN      73  70  90 NW5       30.02R FOG

$$



USA.gov is the U.S. government's official web portal to all federal, state and local government web resources and services.